一网星座-0249星 (ONEWEB-0249 )

导读

ONEWEB-0249是英国OneWeb星座的低轨宽带通信卫星,于2021年7月1日随第8批次卫星发射入轨。卫星重约147.5公斤,运行在1200公里、倾角87.9度的近地轨道,配备Ku/Ka波段天线,设计寿命超7年。它属于OneWeb第一代全球互联网星座,为航空、海事、偏远地区提供低时延宽带接入,卫星遵循空间碎片减缓规范,寿命结束后会主动离轨。

Basic Information
目录编号:
48967
目录名称:
ONEWEB-0249
国际标识:
2021-060A
轨道中心:
EARTH
卫星名称:
一网星座-0249星
卫星全名:
一网星座-0249星 (ONEWEB-0249 )
卫星状态:
在轨 (已飞行1898 天)
发射日期:
2021-07-01 UTC
国别 :
英国 (GB)
星等 :
--
This satellite is enrolled in the Space Conjunction Data Service (SCDS) and the current flight risk assessment level is: No High Risk
Orbit Information
数据来源 国际轨道数据 AOE轨道数据
星历时间 2026-09-11T15:25:34+0800
7小时前
查看轨道信息
2026-09-10T11:00:00+0800
1天前
查看轨道信息
半长轴 7575.897km 7575.889km
偏心率 0.0002022 0.0001443
轨道倾角 87.914° 87.918°
近地点辐角 76.324° 72.960°
升交点赤经 211.676° 211.912°
平近点角 283.812° 76.519°
近地点 1196.228km 1196.658km
远地点 1199.292km 1198.846km
周期 109.373分钟 109.373分钟
每日圈数 13.165936 13.165957
Detailed Information
平衡模式:
三轴稳定
覆盖范围:
全球
运营商:
一网卫星公司
运营商所在国:
英国
制造商(研发单位):
一网卫星公司
制造商所在国:
英国
使用方式:
暂无
Satellite Introduction
OneWeb卫星网络由648颗重约125公斤的微型卫星组成,运行在1200公里的轨道上。 每颗卫星都能够提供至少每秒8千兆位的吞吐量,以使用其高吞吐量的Ku频段有效载荷为家庭和移动平台提供互联网接入。该卫星仍在工作。
2D Orbit Map
3D Orbit Map
Orbit Altitude Analysis Chart
Orbit Inclination Analysis Chart
Orbit Comprehensive Analysis Chart
View Comprehensive Chart
Miss Distance Evolution Trend with All Objects
Collision Probability Evolution Trend with All Objects